Kenai, AK

6:09 AM AKDT on September 19, 2017 (GMT -0800)
Kenai Municipal

Weather History for PAEN - April, 2013

Change the Weather History Date:

Sunday, April 7, 2013

  Actual Average Record
Temperature  
Mean Temperature 18 °F -  
Max Temperature 24 °F 39 °F 51 °F (2016)
Min Temperature 10 °F 22 °F 0 °F (1972)
Degree Days  
Heating Degree Days 48    
Moisture  
Dew Point 9 °F    
Average Humidity 62    
Maximum Humidity 74    
Minimum Humidity 46    
Precipitation  
Precipitation 0.00 in - - ()
Sea Level Pressure  
Sea Level Pressure 29.69 in    
Wind  
Wind Speed 13 mph (SSW)    
Max Wind Speed 21 mph    
Max Gust Speed 28 mph    
Visibility 10 miles    
Events Snow    
Averages and records for this station are not official NWS values.
T = Trace of Precipitation, MM = Missing Value Source: NWS Daily Summary

Daily Weather History Graph

Daily Weather History Graph

Search for Another Location

Airport or City:

Trip Planner

Search our weather history database for the weather conditions in past years. The results will help you decide how hot, cold, wet, or windy it might be!

Date:

Astronomy

Apr. 07, 2013 Rise Set
Actual Time 7:09 AM AKDT 9:06 PM AKDT
Civil Twilight 6:24 AM AKDT 9:51 PM AKDT
Nautical Twilight 5:26 AM AKDT 10:50 PM AKDT
Astronomical Twilight 4:13 AM AKDT 12:04 AM AKDT
Moon 6:09 AM AKDT (4/7) 6:19 PM AKDT (4/7)
Length of Visible Light 15h 27m
Length of Day
13h 56m
Waning Crescent, 7% of the Moon is Illuminated
Apr 7
Waning Crescent
Apr 10
New
Apr 18
First Quarter
Apr 25
Full
May 2
Last Quarter

Hourly Weather History & Observations

Time (AKDT) Temp. Windchill Dew Point Humidity Pressure Visibility Wind Dir Wind Speed Gust Speed Precip Events Conditions
12:53 AM 23.0 °F 11.7 °F 12.9 °F 65% 29.54 in 10.0 mi South 11.5 mph - N/A   Partly Cloudy
1:53 AM 21.9 °F 8.7 °F 12.0 °F 66% 29.55 in 10.0 mi South 15.0 mph - N/A   Clear
2:53 AM 21.9 °F 7.8 °F 10.9 °F 63% 29.56 in 10.0 mi South 17.3 mph - N/A   Clear
3:53 AM 19.9 °F 4.8 °F 10.0 °F 65% 29.57 in 10.0 mi South 18.4 mph - N/A   Clear
4:53 AM 19.9 °F 6.7 °F 10.0 °F 65% 29.58 in 10.0 mi South 13.8 mph - N/A   Clear
5:53 AM 19.0 °F 5.6 °F 9.0 °F 65% 29.59 in 10.0 mi South 13.8 mph - N/A   Clear
6:53 AM 19.0 °F 5.0 °F 9.0 °F 65% 29.60 in 10.0 mi South 15.0 mph - N/A   Clear
7:53 AM 18.0 °F 3.1 °F 9.0 °F 68% 29.61 in 10.0 mi South 16.1 mph - N/A   Clear
8:53 AM 19.0 °F 3.2 °F 8.1 °F 62% 29.62 in 10.0 mi South 19.6 mph 25.3 mph N/A   Partly Cloudy
9:53 AM 19.9 °F 5.2 °F 9.0 °F 62% 29.64 in 10.0 mi South 17.3 mph - N/A   Clear
10:53 AM 21.0 °F 5.7 °F 9.0 °F 60% 29.65 in 10.0 mi South 19.6 mph - N/A   Clear
11:53 AM 21.9 °F 6.9 °F 8.1 °F 55% 29.68 in 10.0 mi South 19.6 mph 27.6 mph N/A   Partly Cloudy
12:53 PM 21.9 °F 6.9 °F 9.0 °F 58% 29.70 in 10.0 mi SSW 19.6 mph 26.5 mph N/A   Mostly Cloudy
1:53 PM 21.9 °F 6.5 °F 10.0 °F 60% 29.72 in 10.0 mi SSW 20.7 mph 25.3 mph N/A   Mostly Cloudy
2:53 PM 23.0 °F 10.1 °F 8.1 °F 53% 29.74 in 10.0 mi SSW 15.0 mph - N/A   Scattered Clouds
3:53 PM 23.0 °F 10.6 °F 14.0 °F 68% 29.75 in 10.0 mi SW 13.8 mph 21.9 mph N/A   Mostly Cloudy
4:53 PM 21.0 °F 10.6 °F 14.0 °F 74% 29.77 in 3.0 mi WSW 9.2 mph - 0.00 in Snow Light Snow
5:00 PM 21.2 °F 10.1 °F 12.2 °F 68% 29.76 in 4.0 mi SW 10.4 mph 16.1 mph 0.00 in Snow Light Snow
5:11 PM 21.2 °F 10.1 °F 10.4 °F 63% 29.76 in 10.0 mi SW 10.4 mph - 0.00 in   Partly Cloudy
5:53 PM 21.9 °F 11.0 °F 8.1 °F 55% 29.77 in 10.0 mi SW 10.4 mph - 0.00 in   Partly Cloudy
6:53 PM 21.0 °F 14.6 °F 3.0 °F 46% 29.77 in 10.0 mi SW 4.6 mph - N/A   Clear
7:53 PM 21.0 °F 14.6 °F 3.0 °F 46% 29.78 in 10.0 mi West 4.6 mph - N/A   Clear
8:53 PM 19.9 °F - 3.9 °F 50% 29.78 in 10.0 mi Calm Calm - N/A   Clear
9:53 PM 16.0 °F - 5.0 °F 62% 29.79 in 10.0 mi Calm Calm - N/A   Clear
10:53 PM 12.9 °F 6.9 °F 3.9 °F 67% 29.80 in 10.0 mi NNE 3.5 mph - N/A   Clear
11:53 PM 10.0 °F 3.6 °F 1.9 °F 70% 29.80 in 10.0 mi North 3.5 mph - N/A   Clear